Location: Peterborough
(44.3091°N, 78.3197°W)
Time: 23:42:24
(UTC-04:00)

Tiangong - Pass Details

Date: 15 March 2026
Orbit: 376 x 385 km, 41.5° (Epoch: 20 April)

Event Time Altitude Azimuth Distance (km) Brightness Sun altitude
Exits shadow 06:12:49 24° 226° (SW) 845 -0.9 -13.8°
Maximum altitude 06:14:17 41° 169° (S) 568 -1.3 -13.5°
Drops below altitude 10° 06:17:19 10° 98° (E) 1,410 2.0 -13.0°
Sets 06:19:27 0° 91° (E) 2,268 3.6 -12.6°
